Creek Data

    Home     View Charts     View Raw Data     Messages

ID Distance Battery Voltage Battery Current Internal Temp Internal Humidity External Temp Solar Input rssi snr Time Stamp Record
68539 14.8 3.72 -5 51 53 52 0 -75 8 03/10/2026 10:30 PM 51408
68538 14.9 3.73 -5 51 53 52 0 -75 9 03/10/2026 10:15 PM 51407
68537 14.8 3.59 -5 52 53 54 0 -75 9 03/10/2026 10:00 PM 51406
68536 14.8 3.58 -5 53 54 54 0 -74 8 03/10/2026 09:45 PM 51405
68535 14.8 3.57 -5 53 54 54 0 -76 9 03/10/2026 09:30 PM 51404
68534 14.8 3.58 -5 54 54 55 0 -74 8 03/10/2026 09:15 PM 51403
68533 14.8 3.56 -5 55 54 56 0 -75 8 03/10/2026 09:00 PM 51402
68532 14.8 3.59 -5 56 54 57 0 -75 8 03/10/2026 08:45 PM 51401
68531 14.8 3.59 -5 57 55 58 0 -76 9 03/10/2026 08:30 PM 51400
68530 14.8 3.61 -5 58 55 58 0 -76 8 03/10/2026 08:15 PM 51399
68529 14.8 3.62 -5 59 56 59 0 -76 8 03/10/2026 08:00 PM 51398
68528 14.8 3.62 -5 61 56 61 0 -75 8 03/10/2026 07:45 PM 51397
68527 14.8 3.75 -5 62 57 62 0.2 -75 8 03/10/2026 07:30 PM 51396
68526 14.9 3.54 -8 64 57 63 3 -75 8 03/10/2026 07:15 PM 51395
68525 14.9 3.63 0 67 57 65 4.5 -76 9 03/10/2026 07:00 PM 51394
68524 14.9 3.71 13 72 55 67 4.5 -76 8 03/10/2026 06:30 PM 51392
68523 14.9 3.73 5 76 52 69 5.1 -75 8 03/10/2026 06:15 PM 51391
68522 14.9 3.73 5 75 53 69 5.1 -76 8 03/10/2026 06:00 PM 51390
68521 14.9 3.73 5 75 54 69 5.1 -76 8 03/10/2026 05:45 PM 51389
68520 14.9 3.73 0 77 53 69 5.1 -75 8 03/10/2026 05:30 PM 51388
68519 14.9 3.73 5 79 51 70 5.1 -75 8 03/10/2026 05:15 PM 51387
68518 14.9 3.73 5 79 51 70 5.1 -75 8 03/10/2026 05:00 PM 51386
68517 14.9 3.73 0 80 51 70 5.1 -76 8 03/10/2026 04:45 PM 51385
68516 14.9 4.05 0 81 50 70 5.1 -74 8 03/10/2026 04:30 PM 51384
68515 15.0 3.73 5 81 50 70 5.1 -74 8 03/10/2026 04:15 PM 51383